Location: Unspecified
(0.0000°N, 0.0000°E)
Time: 11:01:56
(UTC+00:00)

S-56A Canister/Altair - Pass Details

Date: 24 November 2019
Orbit: 632 x 2500 km, 38.9° (Epoch: 14 December)

Event Time Altitude Azimuth Distance (km) Brightness Sun altitude
Rises 01:44:50 0° 267° (W) 2,964 - -54.6°
Reaches altitude 10° 01:48:27 10° 236° (SW) 2,199 - -53.8°
Maximum altitude 01:50:32 12° 211° (SSW) 2,153 - -53.4°
Drops below altitude 10° 01:52:49 10° 186° (S) 2,472 - -53.0°
Exits shadow 01:55:59 - 165° (SSE) 3,302 11.1 -52.3°
Sets 01:57:33 0° 158° (SSE) 3,796 11.6 -52.0°
